sat.trackr.live / text

‹ back to catalog

STARLINK-36284

NORAD 67194 · 2025-304C

PAYLOAD ACTIVE UNKNOWN

§ Identity

Operator
Country
US
Launch date
2025-12-17
Launch site
AFWTR
Launch vehicle
Mass (kg)
RCS (m²)

Purposes: comms

External: N2YO · Heavens-Above · Gunter

§ Orbital elements

Epoch: 2026-05-25T00:09:41.027040Z

Period
96.11 min
Inclination
70.0021°
Eccentricity
0.0002964
Mean motion
14.98337619 rev/d
Perigee alt
570.0 km
Apogee alt
574.1 km
Semi-major
6,950.2 km
B*
3.4086e-4
RAAN
342.1424°
Arg perigee
261.2348°
Mean anomaly
98.8476°
Rev number
2,531

§ Raw data

STARLINK-362841 67194U 25304C   26145.00672485  .00003977  00000+0  34086-3 0  99902 67194  70.0021 342.1424 0002964 261.2348  98.8476 14.98337619 25310

JSON: /api/v1/satellites/67194 · /tle

For live sub-satellite position, see the globe view (requires WebGL).

§ Visibility from observer

Set your observer location to see the next 7 days of passes ≥ 10°. The values pass through the URL so the page stays shareable.

No JS? Fill the form by hand. The geolocation button needs JavaScript.